1506308400.37,917,14.13,73978.8,-2.37,-28.25,-27.45,0,*50
1506308401.65,918,14.13,73976.3,-2.37,-29.01,-28.79,0,*58
1506308402.88,919,14.13,73978.0,-2.37,-29.45,-29.83,0,*5D
1506308404.17,920,14.13,73976.3,-2.37,-29.51,-29.89,0,*58
1506308405.43,921,14.13,73982.3,-2.37,-29.35,-29.83,0,*51
1506308406.72,922,14.13,73980.5,-2.37,-29.51,-29.89,0,*5A
1506308407.92,923,14.13,73982.0,-2.35,-29.45,-29.83,0,*56
1506308409.16,924,14.13,73980.8,-2.37,-29.45,-29.83,0,*53
1506308410.36,925,14.13,73980.5,-2.35,-29.45,-29.83,0,*50
1506308411.6,926,14.13,73982.5,-2.35,-29.51,-29.95,0,*51
1506308412.85,927,14.13,73978.0,-2.37,-29.57,-30.05,0,*55
1506308414.08,928,14.13,73978.8,-2.35,-29.61,-30.01,0,*59
1506308415.31,929,14.13,73978.5,-2.35,-29.61,-30.17,0,*5F
1506308416.51,930,14.13,73974.8,-2.35,-29.61,-30.11,0,*51
1506308417.74,931,14.13,73978.5,-2.35,-29.61,-30.01,0,*51
1506308418.97,932,14.13,73976.5,-2.35,-29.67,-30.01,0,*54
1506308420.2,933,14.13,73976.8,-2.37,-29.45,-29.83,0,*55
1506308421.49,934,14.13,73980.0,-2.37,-29.51,-29.89,0,*5D
1506308422.74,935,14.13,73976.8,-2.37,-29.45,-29.73,0,*5C
1506308423.97,936,14.13,73978.3,-2.35,-29.39,-29.45,0,*53
1506308425.24,937,14.13,73982.3,-2.37,-29.67,-30.17,0,*54
1506308426.46,938,14.06,73976.3,-2.35,-29.39,-29.95,0,*50
1506308427.75,939,14.13,73980.0,-2.37,-29.51,-30.05,0,*5C
1506308429.01,940,14.13,73972.5,-2.37,-29.89,-30.33,0,*52
1506308430.27,941,14.13,73970.0,-2.37,-29.89,-30.33,0,*53
1506308431.49,942,14.13,73972.0,-2.39,-29.79,-30.39,0,*5B
1506308432.7,943,14.13,73978.5,-2.39,-29.61,-30.11,0,*59
1506308433.93,944,14.13,73976.3,-2.39,-29.39,-29.79,0,*55
1506308435.19,945,14.13,73974.3,-2.37,-29.35,-29.83,0,*53
1506308436.45,946,14.13,73976.0,-2.35,-29.39,-29.89,0,*54
1506308437.73,947,14.13,73980.3,-2.37,-29.51,-30.05,0,*55
1506308438.96,948,14.13,73976.8,-2.35,-29.45,-30.01,0,*59
1506308440.25,949,14.13,73980.0,-2.37,-29.51,-30.01,0,*5F
1506308441.5,950,14.13,73980.3,-2.37,-29.57,-30.05,0,*55
1506308442.79,951,14.13,73982.3,-2.37,-29.51,-30.01,0,*56
1506308444.05,952,14.13,73986.3,-2.37,-29.45,-29.89,0,*58
1506308445.3,953,14.13,73986.3,-2.37,-28.53,-28.43,0,*58
1506308446.58,954,14.13,73988.0,-2.37,-28.63,-28.47,0,*58
1506308447.8,955,14.13,73988.5,-2.37,-28.69,-28.97,0,*5E
1506308449.02,956,14.13,73990.3,-2.37,-28.15,-27.93,0,*5D
1506308450.28,957,14.13,73984.0,-2.37,-28.53,-27.83,0,*5F
1506308451.52,958,14.13,73986.0,-2.37,-27.39,-26.45,0,*58
1506308452.8,959,14.13,73984.8,-2.37,-24.67,-24.83,0,*59
1506308454.05,960,14.13,73986.3,-2.39,-23.99,-23.29,0,*5C
1506308455.3,961,14.13,73986.0,-2.39,-25.29,-24.71,0,*5A
1506308456.56,962,14.13,73984.3,-2.39,-24.71,-24.25,0,*54
1506308457.77,963,14.06,73982.8,-2.39,-24.51,-23.39,0,*5D
1506308459.0,964,14.13,73986.0,-2.39,-24.51,-23.53,0,*56
1506308460.23,965,14.13,73984.8,-2.41,-25.49,-24.51,0,*55
1506308461.47,966,14.13,73980.8,-2.41,-25.39,-24.41,0,*50
1506308462.7,967,14.13,73984.8,-2.39,-25.13,-24.41,0,*56
1506308463.93,968,14.13,73980.8,-2.41,-24.05,-23.09,0,*5B
1506308465.17,969,14.06,73980.5,-2.41,-22.41,-21.97,0,*59
1506308466.42,970,14.13,73986.0,-2.41,-23.99,-22.11,0,*58
1506308467.69,971,14.06,73976.8,-2.41,-23.53,-21.97,0,*52
1506308468.95,972,14.06,73978.8,-2.41,-23.75,-23.23,0,*58
1506308470.2,973,14.13,73980.0,-2.41,-23.43,-22.77,0,*5C
1506308471.45,974,14.06,73976.3,-2.41,-24.83,-23.59,0,*5D
1506308472.68,975,14.13,73980.5,-2.41,-23.59,-20.73,0,*57
1506308473.93,976,14.13,73982.5,-2.41,-22.77,-20.69,0,*52
1506308475.2,977,14.13,73984.3,-2.41,-23.85,-21.33,0,*51
1506308476.43,978,14.06,73982.3,-2.43,-22.53,-19.85,0,*50
1506308477.68,979,14.13,73984.5,-2.43,-22.31,-19.65,0,*5B
1506308478.89,980,14.06,73982.8,-2.45,-20.09,-18.89,0,*51
1506308480.14,981,14.06,73980.0,-2.45,-19.57,-18.01,0,*51
1506308481.37,982,14.13,73984.8,-2.43,-19.17,-17.41,0,*5B
1506308482.57,983,14.06,73982.5,-2.45,-18.79,-16.79,0,*5F
1506308483.8,984,14.06,73980.5,-2.43,-18.73,-17.21,0,*58
1506308484.99,985,14.06,73982.0,-2.45,-19.17,-18.17,0,*56
1506308486.22,986,14.06,73986.5,-2.41,-21.17,-19.75,0,*5F
1506308487.46,987,14.06,73980.3,-2.43,-24.11,-21.57,0,*54
1506308488.67,988,14.06,73984.3,-2.43,-24.31,-22.11,0,*58
1506308489.9,989,14.06,73980.3,-2.43,-24.25,-22.93,0,*56
1506308491.11,990,14.06,73980.0,-2.43,-23.75,-22.63,0,*53
1506308492.3,991,14.06,73976.3,-2.45,-24.93,-24.31,0,*5A
1506308493.54,992,14.06,73974.5,-2.45,-28.05,-28.09,0,*5D
1506308494.8,993,14.06,73976.8,-2.43,-27.61,-27.19,0,*59
1506308496.03,994,14.06,73978.8,-2.43,-27.39,-27.03,0,*58
1506308497.25,995,14.06,73976.5,-2.45,-27.03,-27.23,0,*54
1506308498.46,996,14.06,73970.8,-2.45,-27.89,-28.75,0,*59
1506308499.7,997,14.06,73968.0,-2.49,-26.29,-26.97,0,*5D
1506308500.93,998,14.06,73970.8,-2.45,-26.45,-27.35,0,*5D
1506308502.15,999,14.06,73972.8,-2.45,-24.77,-24.87,0,*55
1506308503.37,1000,14.06,73970.3,-2.49,-23.49,-22.67,0,*63
1506308504.59,1001,14.06,73974.3,-2.49,-24.15,-23.79,0,*62
1506308505.79,1002,14.06,73972.8,-2.49,-23.79,-24.35,0,*63
1506308507.02,1003,14.06,73970.3,-2.49,-23.69,-24.15,0,*61
1506308508.23,1004,14.06,73974.3,-2.49,-22.73,-22.41,0,*6B
1506308509.43,1005,14.06,73972.8,-2.49,-22.53,-21.43,0,*69
1506308510.67,1006,14.06,73974.5,-2.51,-24.97,-23.95,0,*64
1506308511.92,1007,14.06,73982.0,-2.49,-24.11,-23.19,0,*66
1506308513.15,1008,14.06,73978.3,-2.51,-21.77,-19.75,0,*66
1506308514.38,1009,14.06,73972.3,-2.49,-19.47,-16.09,0,*62
1506308515.58,1010,14.06,73972.8,-2.49,-18.65,-14.65,0,*63
1506308516.83,1011,14.06,73976.8,-2.51,-17.11,-13.11,0,*63
1506308518.05,1012,14.06,73976.5,-2.49,-16.41,-11.97,0,*61
1506308519.28,1013,14.06,73978.8,-2.49,-16.13,-11.41,0,*6C
1506308520.48,1014,14.06,73976.3,-2.49,-15.25,-11.01,0,*69
1506308521.74,1015,14.06,73972.3,-2.51,-14.51,-10.57,0,*61
1506308522.94,1016,14.06,73976.3,-2.49,-14.37,-10.57,0,*6B
1506308524.13,1017,14.06,73978.5,-2.49,-14.69,-11.01,0,*63
1506308525.36,1018,14.06,73974.3,-2.45,-15.29,-11.63,0,*61
1506308526.59,1019,14.06,73970.3,-2.49,-16.27,-12.93,0,*6D
1506308527.81,1020,14.06,73978.5,-2.49,-18.41,-14.79,0,*6B
1506308529.04,1021,14.06,73978.3,-2.45,-22.31,-18.49,0,*67
1506308530.23,1022,14.06,73976.3,-2.45,-25.19,-22.37,0,*69
1506308531.44,1023,14.06,73976.3,-2.45,-24.05,-22.93,0,*6A
1506308532.67,1024,14.06,73978.8,-2.43,-23.49,-23.13,0,*6D
1506308533.87,1025,14.06,73972.8,-2.45,-23.13,-22.53,0,*60
1506308535.1,1026,14.06,73978.0,-2.49,-24.47,-23.49,0,*63
1506308536.33,1027,14.06,73974.8,-2.49,-25.91,-25.97,0,*6D
1506308537.53,1028,14.06,73976.8,-2.49,-27.13,-28.31,0,*6B
1506308538.78,1029,14.06,73980.3,-2.51,-28.43,-29.45,0,*6B
1506308540.03,1030,14.06,73978.5,-2.45,-26.55,-27.35,0,*66
1506308541.25,1031,14.06,73978.0,-2.45,-25.39,-26.71,0,*6F
1506308542.5,1032,14.06,73970.8,-2.45,-24.87,-26.17,0,*68
1506308543.7,1033,14.06,73974.8,-2.49,-23.79,-25.65,0,*65
1506308544.92,1034,14.06,73976.0,-2.49,-22.57,-24.15,0,*69
1506308546.12,1035,14.06,73974.3,-2.49,-22.37,-23.13,0,*6F
1506308547.38,1036,14.06,73972.0,-2.51,-22.57,-23.03,0,*62
1506308548.6,1037,14.06,73972.0,-2.49,-23.13,-22.73,0,*6D
1506308549.84,1038,14.06,73974.3,-2.49,-23.53,-23.65,0,*60
1506308551.11,1039,14.06,73972.8,-2.51,-23.29,-23.69,0,*69
1506308552.39,1040,14.06,73972.8,-2.51,-22.17,-22.31,0,*67
1506308553.62,1041,14.06,73974.0,-2.49,-21.73,-20.83,0,*65
1506308554.84,1042,14.06,73972.3,-2.49,-21.57,-19.71,0,*67
1506308556.03,1043,14.06,73968.0,-2.49,-21.13,-18.83,0,*6A
1506308557.27,1044,14.06,73972.0,-2.49,-21.33,-19.23,0,*64
1506308558.52,1045,14.06,73970.5,-2.51,-22.41,-19.85,0,*66
1506308559.77,1046,14.06,73970.8,-2.51,-23.03,-20.05,0,*60
1506308561.02,1047,14.06,73974.8,-2.49,-22.31,-19.85,0,*6A
1506308562.26,1048,14.06,73968.5,-2.49,-19.85,-18.01,0,*6F
1506308563.49,1049,14.06,73972.3,-2.49,-18.31,-16.37,0,*6B
1506308564.74,1050,14.06,73972.3,-2.49,-17.63,-16.09,0,*66
1506308565.99,1051,14.06,73978.8,-2.49,-18.31,-17.03,0,*64
1506308567.19,1052,14.06,73978.3,-2.49,-21.47,-20.05,0,*6E
1506308568.44,1053,14.06,73976.8,-2.49,-23.85,-21.87,0,*68
1506308569.64,1054,14.06,73976.5,-2.49,-25.09,-22.57,0,*63
1506308570.85,1055,14.06,73974.5,-2.51,-24.93,-23.13,0,*68
1506308572.1,1056,14.06,73974.0,-2.49,-23.65,-21.27,0,*69
1506308573.35,1057,14.06,73968.8,-2.49,-21.57,-19.23,0,*64
1506308574.62,1058,14.06,73972.5,-2.51,-22.31,-19.85,0,*6D
1506308575.86,1059,14.06,73972.5,-2.51,-23.49,-21.73,0,*60
1506308577.09,1060,14.06,73970.8,-2.49,-24.15,-22.87,0,*65
1506308578.34,1061,14.06,73968.0,-2.51,-24.47,-23.19,0,*6C
1506308579.59,1062,14.06,73972.5,-2.51,-23.99,-22.37,0,*66
1506308580.79,1063,14.06,73968.3,-2.49,-24.47,-22.41,0,*6B
1506308582.02,1064,14.06,73970.5,-2.51,-24.35,-22.83,0,*6E
1506308583.27,1065,14.06,73972.0,-2.51,-24.61,-23.19,0,*6C
1506308584.47,1066,14.06,73970.3,-2.49,-25.61,-25.09,0,*60
1506308585.7,1067,14.06,73966.0,-2.51,-26.45,-26.39,0,*6D
1506308586.96,1068,14.06,73964.8,-2.51,-24.15,-25.65,0,*6F
1506308588.2,1069,14.06,73966.5,-2.51,-25.45,-27.13,0,*69
1506308589.44,1070,14.06,73966.0,-2.51,-25.23,-25.81,0,*68
1506308590.71,1071,14.06,73966.0,-2.51,-23.65,-23.53,0,*64
1506308591.96,1072,14.06,73968.5,-2.51,-23.19,-22.83,0,*60
1506308593.18,1073,14.06,73968.8,-2.49,-23.13,-22.21,0,*6A
1506308594.44,1074,14.06,73968.3,-2.51,-22.07,-20.49,0,*6C
1506308595.66,1075,14.06,73968.0,-2.51,-22.37,-20.29,0,*68
1506308596.93,1076,14.06,73968.0,-2.51,-20.79,-19.23,0,*63
1506308598.18,1077,14.06,73968.0,-2.51,-19.37,-18.35,0,*64
1506308599.44,1078,14.06,73966.0,-2.51,-19.07,-17.03,0,*62
1506308600.69,1079,14.06,73970.0,-2.51,-19.61,-16.83,0,*6A
1506308601.91,1080,14.06,73970.3,-2.51,-19.75,-16.89,0,*63
1506308603.18,1081,14.06,73972.3,-2.51,-20.35,-17.41,0,*69
1506308604.42,1082,14.06,73968.8,-2.51,-19.13,-16.59,0,*6C
1506308605.64,1083,14.06,73974.5,-2.51,-18.49,-16.37,0,*6B
1506308606.84,1084,14.06,73972.5,-2.49,-18.07,-16.41,0,*6E
1506308608.1,1085,14.06,73974.3,-2.51,-18.69,-17.03,0,*69
1506308609.32,1086,14.06,73970.5,-2.51,-19.91,-17.49,0,*62
1506308610.59,1087,14.06,73974.3,-2.51,-20.53,-17.79,0,*64
1506308611.82,1088,14.06,73972.5,-2.51,-19.71,-16.41,0,*6B
1506308613.08,1089,14.06,73974.3,-2.51,-19.27,-15.67,0,*6E
1506308614.31,1090,14.06,73972.5,-2.51,-19.37,-15.71,0,*60
1506308615.54,1091,14.06,73972.8,-2.51,-18.99,-15.71,0,*64
1506308616.77,1092,14.06,73976.3,-2.51,-18.83,-15.95,0,*66
1506308618.04,1093,14.06,73976.5,-2.51,-19.85,-17.11,0,*6E
1506308619.3,1094,14.06,73978.5,-2.51,-22.57,-20.19,0,*62
1506308620.55,1095,14.06,73978.5,-2.51,-25.97,-24.61,0,*63
1506308621.83,1096,14.06,73976.0,-2.51,-27.45,-25.97,0,*65
1506308623.06,1097,14.06,73980.3,-2.51,-27.55,-25.65,0,*68
1506308624.33,1098,14.06,73976.8,-2.51,-28.25,-26.93,0,*65
1506308625.56,1099,14.06,73974.3,-2.49,-28.85,-28.47,0,*60
1506308626.82,1100,14.06,73976.0,-2.51,-29.17,-29.29,0,*6B
1506308628.07,1101,14.06,73976.3,-2.49,-28.63,-29.01,0,*6B
1506308629.29,1102,14.06,73978.3,-2.49,-28.97,-29.17,0,*64
1506308630.53,1103,14.06,73976.5,-2.49,-28.79,-29.13,0,*61
1506308631.77,1104,14.06,73978.8,-2.45,-28.75,-29.13,0,*66
1506308632.99,1105,14.06,73978.5,-2.49,-28.85,-29.29,0,*6D
1506308634.21,1106,14.06,73974.5,-2.45,-28.97,-29.39,0,*60
1506308635.44,1107,14.06,73982.3,-2.43,-29.07,-29.39,0,*6F
1506308636.67,1108,14.06,73980.0,-2.43,-29.07,-29.39,0,*60
1506308637.87,1109,14.06,73982.0,-2.45,-29.07,-29.45,0,*6C
1506308639.1,1110,14.06,73984.0,-2.45,-29.13,-29.57,0,*62
1506308640.32,1111,14.06,73980.0,-2.45,-29.29,-29.61,0,*6F
1506308641.54,1112,14.06,73982.5,-2.45,-29.29,-29.61,0,*6C
1506308642.75,1113,14.06,73984.8,-2.43,-28.97,-29.61,0,*6F
1506308643.95,1114,14.06,73978.0,-2.43,-28.97,-29.57,0,*6D
1506308645.19,1115,14.06,73982.5,-2.45,-29.39,-29.83,0,*66
1506308646.44,1116,14.06,73982.0,-2.45,-29.13,-30.01,0,*6F
1506308647.66,1117,14.06,73976.8,-2.45,-28.59,-30.11,0,*60
1506308648.91,1118,14.06,73976.5,-2.45,-26.71,-28.09,0,*6B
1506308650.14,1119,14.06,73978.8,-2.45,-25.55,-27.07,0,*6E
1506308651.34,1120,14.06,73976.5,-2.45,-25.09,-26.07,0,*6C
1506308652.57,1121,14.06,73974.8,-2.45,-25.03,-25.09,0,*6A
1506308653.76,1122,14.06,73978.8,-2.45,-24.93,-24.05,0,*6C
1506308654.99,1123,14.06,73980.0,-2.43,-25.09,-24.87,0,*63
1506308656.22,1124,14.06,73976.0,-2.45,-25.75,-26.03,0,*67
1506308657.43,1125,14.06,73976.3,-2.45,-27.93,-27.89,0,*6F
1506308658.63,1126,14.06,73980.5,-2.45,-29.79,-29.95,0,*65
1506308659.85,1127,14.06,73980.3,-2.45,-29.13,-29.57,0,*66
1506308661.07,1128,14.06,73982.3,-2.45,-27.35,-27.55,0,*6F
1506308662.3,1129,14.06,73978.0,-2.49,-26.29,-25.49,0,*61
1506308663.5,1130,14.06,73972.0,-2.49,-25.91,-24.93,0,*6F
1506308664.72,1131,14.06,73974.5,-2.49,-23.65,-22.37,0,*6B
1506308665.94,1132,14.06,73974.0,-2.45,-21.83,-19.51,0,*66
1506308667.17,1133,14.06,73970.5,-2.49,-20.49,-18.07,0,*6E
1506308668.41,1134,14.06,73970.5,-2.49,-19.41,-17.11,0,*63
1506308669.61,1135,14.06,73974.0,-2.49,-18.79,-16.41,0,*6C
1506308670.84,1136,14.06,73972.3,-2.51,-17.87,-16.37,0,*69
1506308672.04,1137,14.06,73972.8,-2.49,-16.41,-15.71,0,*6B
1506308673.29,1138,14.06,73974.3,-2.45,-15.81,-15.21,0,*62
1506308674.49,1139,14.06,73976.0,-2.49,-19.07,-16.75,0,*6F
1506308675.71,1140,14.06,73978.3,-2.49,-20.49,-17.31,0,*60
1506308676.96,1141,14.06,73976.3,-2.49,-20.53,-17.41,0,*6D
1506308678.15,1142,14.06,73980.3,-2.49,-22.07,-18.41,0,*62
1506308679.4,1143,14.06,73982.3,-2.49,-23.29,-20.83,0,*6B
1506308680.64,1144,14.06,73982.5,-2.49,-22.73,-19.23,0,*62
1506308681.86,1145,14.06,73980.0,-2.49,-21.87,-18.69,0,*64
1506308683.05,1146,14.06,73976.0,-2.49,-20.05,-18.65,0,*60
1506308684.33,1147,14.06,73978.3,-2.51,-19.41,-19.57,0,*62
1506308685.53,1148,14.06,73974.8,-2.49,-19.37,-18.79,0,*68
1506308686.77,1149,14.06,73974.8,-2.49,-20.15,-18.93,0,*67
1506308687.97,1150,14.06,73974.8,-2.49,-23.13,-22.03,0,*6A
1506308689.22,1151,14.0,73966.0,-2.49,-25.75,-23.85,0,*62
1506308690.44,1152,14.06,73968.8,-2.49,-26.29,-24.35,0,*67
1506308691.68,1153,14.0,73970.8,-2.49,-26.93,-23.99,0,*66
1506308692.91,1154,14.0,73968.3,-2.51,-24.61,-22.53,0,*60
1506308694.16,1155,14.06,73976.3,-2.51,-26.45,-23.33,0,*62
1506308695.44,1156,14.06,73980.3,-2.51,-26.97,-25.75,0,*6A
1506308696.7,1157,14.06,73976.5,-2.51,-28.85,-27.99,0,*66
1506308697.95,1158,14.06,73972.0,-2.51,-29.17,-29.45,0,*6C
1506308699.21,1159,14.06,73978.5,-2.51,-29.67,-30.17,0,*65
1506308700.46,1160,14.0,73970.8,-2.51,-29.61,-30.01,0,*6E
1506308701.75,1161,14.0,73968.0,-2.51,-29.51,-30.01,0,*6C
1506308702.98,1162,14.06,73970.8,-2.49,-29.01,-28.15,0,*6F
1506308704.23,1163,14.06,73968.8,-2.51,-28.15,-29.35,0,*60
1506308705.47,1164,14.06,73970.0,-2.49,-29.17,-30.05,0,*66
1506308706.72,1165,14.06,73974.3,-2.51,-29.13,-29.83,0,*6C
1506308707.97,1166,14.06,73974.3,-2.49,-29.17,-30.05,0,*64
1506308709.22,1167,14.06,73972.3,-2.49,-29.13,-30.01,0,*65
1506308710.47,1168,14.06,73972.0,-2.51,-28.63,-29.83,0,*67
1506308711.72,1169,14.0,73968.0,-2.51,-28.09,-29.45,0,*60
1506308712.97,1170,14.06,73972.3,-2.51,-27.67,-29.17,0,*68
1506308714.24,1171,14.0,73972.5,-2.51,-28.09,-29.01,0,*69
1506308715.47,1172,14.0,73976.3,-2.49,-26.97,-26.49,0,*69
1506308716.72,1173,14.06,73974.0,-2.51,-24.61,-26.13,0,*65
1506308717.98,1174,14.0,73970.8,-2.51,-23.95,-25.09,0,*66
1506308719.23,1175,14.0,73970.8,-2.51,-23.79,-24.83,0,*66
1506308720.46,1176,14.0,73970.3,-2.51,-22.97,-22.87,0,*66
1506308721.73,1177,14.06,73972.0,-2.51,-23.03,-22.31,0,*66
1506308722.95,1178,14.0,73968.8,-2.53,-21.47,-20.89,0,*68
1506308724.19,1179,14.0,73970.3,-2.51,-20.49,-19.99,0,*6F
1506308725.42,1180,14.0,73972.8,-2.51,-19.71,-19.13,0,*6A
1506308726.7,1181,14.0,73972.5,-2.51,-20.15,-19.57,0,*63
1506308727.94,1182,14.0,73972.8,-2.51,-19.85,-19.71,0,*67
1506308729.19,1183,14.0,73970.3,-2.51,-19.27,-19.07,0,*6F
1506308730.45,1184,14.0,73970.8,-2.51,-18.93,-19.13,0,*63
1506308731.67,1185,14.0,73968.3,-2.51,-18.17,-18.65,0,*6E
1506308732.94,1186,14.0,73970.5,-2.51,-17.79,-17.93,0,*6C
1506308734.19,1187,14.0,73972.0,-2.51,-16.75,-16.69,0,*64
1506308735.39,1188,14.0,73972.0,-2.49,-16.97,-16.55,0,*61
1506308736.65,1189,14.0,73972.3,-2.51,-16.09,-15.71,0,*6B
1506308737.9,1190,14.0,73968.3,-2.51,-15.95,-15.21,0,*60
1506308739.13,1191,14.0,73970.0,-2.51,-16.55,-15.53,0,*6B
1506308740.41,1192,14.0,73972.8,-2.51,-17.17,-16.23,0,*6B
1506308741.63,1193,14.0,73972.8,-2.51,-17.31,-16.75,0,*6D
1506308742.88,1194,14.0,73968.5,-2.49,-17.79,-17.59,0,*60
1506308744.16,1195,14.0,73972.5,-2.51,-19.23,-20.19,0,*69
1506308745.38,1196,14.0,73974.5,-2.51,-20.05,-22.57,0,*6C
1506308746.64,1197,14.0,73972.0,-2.51,-18.65,-21.23,0,*60
1506308747.83,1198,14.0,73964.5,-2.49,-18.99,-22.37,0,*63
1506308749.06,1199,14.0,73970.0,-2.51,-19.75,-21.47,0,*6C
1506308750.26,1200,14.0,73972.0,-2.49,-21.47,-22.03,0,*6F
1506308751.52,1201,14.0,73974.8,-2.51,-23.29,-23.95,0,*63
1506308752.77,1202,14.0,73972.8,-2.51,-23.79,-24.25,0,*69
1506308753.98,1203,14.0,73970.5,-2.49,-26.45,-26.39,0,*64
1506308755.17,1204,14.06,73976.8,-2.49,-27.77,-27.13,0,*6A
1506308756.43,1205,14.0,73972.5,-2.51,-27.93,-28.25,0,*62
1506308757.67,1206,14.0,73970.0,-2.49,-29.51,-29.29,0,*65
1506308758.92,1207,14.0,73968.0,-2.49,-29.51,-29.29,0,*64
1506308760.15,1208,14.0,73970.8,-2.51,-28.85,-27.67,0,*6E
1506308761.41,1209,14.0,73970.5,-2.51,-29.45,-30.05,0,*60
1506308762.65,1210,14.0,73974.0,-2.51,-28.69,-29.13,0,*68
1506308763.93,1211,14.0,73968.8,-2.51,-29.35,-29.73,0,*67
1506308765.17,1212,14.0,73972.5,-2.49,-29.13,-29.13,0,*6F
1506308766.42,1213,14.0,73970.3,-2.51,-29.61,-29.51,0,*64
1506308767.68,1214,14.0,73970.5,-2.51,-29.67,-30.01,0,*68
1506308768.91,1215,14.0,73972.3,-2.51,-29.45,-29.83,0,*6B
1506308770.17,1216,14.0,73970.8,-2.51,-29.67,-30.17,0,*6D
1506308771.42,1217,14.0,73972.5,-2.51,-29.61,-30.05,0,*69
1506308772.62,1218,14.0,73974.0,-2.53,-29.67,-29.95,0,*63
1506308773.88,1219,14.0,73974.3,-2.53,-29.51,-29.51,0,*6F
1506308775.1,1220,14.0,73974.0,-2.53,-29.17,-29.07,0,*64
1506308776.33,1221,14.0,73970.5,-2.53,-28.85,-28.47,0,*6A
1506308777.54,1222,14.0,73974.8,-2.53,-27.67,-27.51,0,*62
1506308778.79,1223,14.0,73970.3,-2.53,-25.55,-25.81,0,*6F
1506308780.04,1224,14.0,73972.5,-2.53,-23.33,-24.15,0,*62
1506308781.26,1225,14.0,73972.5,-2.53,-21.83,-22.87,0,*67
1506308782.49,1226,14.0,73974.0,-2.53,-20.69,-21.03,0,*6E
1506308783.71,1227,14.0,73974.5,-2.51,-19.99,-18.49,0,*6C
1506308784.94,1228,14.0,73974.5,-2.51,-18.65,-16.75,0,*60
1506308786.17,1229,14.0,73974.0,-2.51,-16.45,-14.69,0,*62
1506308787.42,1230,14.0,73970.5,-2.51,-16.09,-14.37,0,*69
1506308788.61,1231,14.0,73972.0,-2.49,-15.11,-13.11,0,*68
1506308789.89,1232,14.0,73974.3,-2.51,-13.79,-11.93,0,*62
1506308791.14,1233,14.0,73974.3,-2.51,-12.93,-11.67,0,*6D
1506308792.42,1234,14.0,73968.8,-2.51,-12.61,-11.63,0,*63
1506308793.62,1235,14.0,73972.3,-2.49,-13.19,-12.21,0,*60
1506308794.85,1236,14.0,73968.3,-2.51,-14.11,-12.97,0,*68
1506308796.09,1237,14.0,73972.5,-2.51,-15.07,-13.79,0,*6E
1506308797.36,1238,14.0,73972.5,-2.51,-16.23,-14.93,0,*67
1506308798.59,1239,14.0,73972.0,-2.49,-17.45,-15.99,0,*65
1506308799.84,1240,14.0,73976.8,-2.51,-18.99,-17.17,0,*68
1506308801.09,1241,14.0,73974.5,-2.45,-20.83,-18.35,0,*63
1506308802.34,1242,14.0,73972.5,-2.51,-21.93,-19.85,0,*6F
1506308803.59,1243,14.0,73968.3,-2.51,-22.31,-20.69,0,*6D
1506308804.82,1244,14.0,73966.5,-2.49,-22.87,-21.27,0,*65
1506308806.06,1245,14.0,73966.5,-2.51,-27.83,-25.91,0,*65
1506308807.34,1246,14.0,73966.3,-2.51,-29.51,-29.17,0,*65
1506308808.58,1247,14.0,73970.5,-2.49,-27.99,-27.45,0,*6E
1506308809.83,1248,14.0,73968.0,-2.51,-26.45,-25.45,0,*6A
1506308811.08,1249,14.0,73968.8,-2.51,-28.85,-27.99,0,*6A
1506308812.31,1250,14.0,73972.8,-2.51,-27.77,-27.07,0,*67
1506308813.58,1251,14.0,73974.8,-2.51,-28.47,-27.61,0,*6A
1506308814.84,1252,14.0,73974.8,-2.53,-29.39,-29.01,0,*6B
1506308816.09,1253,14.0,73974.0,-2.51,-28.09,-27.29,0,*6E
1506308817.32,1254,14.0,73970.8,-2.51,-24.35,-24.31,0,*60
1506308818.54,1255,14.0,73970.8,-2.51,-25.91,-25.91,0,*65
1506308819.76,1256,14.0,73978.5,-2.53,-29.01,-29.07,0,*62
1506308821.02,1257,14.0,73972.8,-2.53,-29.51,-30.05,0,*6C
1506308822.27,1258,14.0,73968.5,-2.51,-29.61,-30.05,0,*62
1506308823.53,1259,14.0,73970.8,-2.51,-29.61,-30.17,0,*60
1506308824.76,1260,14.0,73972.8,-2.53,-29.57,-30.05,0,*6E
1506308825.99,1261,14.0,73972.3,-2.53,-29.57,-30.05,0,*6F
1506308827.19,1262,14.0,73970.3,-2.53,-29.67,-30.11,0,*6A
1506308828.42,1263,14.0,73968.5,-2.53,-29.57,-29.89,0,*61
1506308829.62,1264,14.0,73972.8,-2.53,-29.79,-30.11,0,*63
1506308830.83,1265,14.0,73968.5,-2.53,-29.57,-29.67,0,*67
1506308832.05,1266,14.0,73966.3,-2.53,-29.73,-30.11,0,*6B
1506308833.27,1267,14.0,73970.8,-2.53,-29.73,-30.11,0,*6A
1506308834.48,1268,14.0,73972.0,-2.53,-29.67,-30.11,0,*60
1506308835.7,1269,14.0,73966.3,-2.53,-29.73,-30.11,0,*64
1506308836.92,1270,14.0,73970.3,-2.53,-29.73,-30.23,0,*6D
1506308838.18,1271,14.0,73968.5,-2.51,-29.83,-30.17,0,*66
1506308839.46,1272,14.0,73968.5,-2.51,-29.73,-30.17,0,*6A
1506308840.7,1273,14.0,73960.5,-2.51,-29.83,-30.33,0,*62
1506308841.95,1274,14.0,73968.3,-2.53,-29.89,-30.39,0,*67
1506308843.18,1275,14.0,73964.3,-2.51,-29.83,-30.33,0,*64
1506308844.44,1276,14.0,73966.5,-2.53,-29.89,-30.39,0,*65
1506308845.67,1277,14.0,73966.5,-2.53,-29.95,-30.39,0,*69
1506308846.93,1278,14.0,73960.0,-2.53,-29.89,-29.89,0,*68
1506308848.14,1279,14.0,73960.5,-2.53,-29.67,-29.67,0,*69
1506308849.34,1280,14.0,73960.5,-2.53,-29.57,-29.23,0,*6C
1506308850.59,1281,14.0,73966.3,-2.53,-29.51,-30.05,0,*67
1506308851.82,1282,14.0,73960.8,-2.53,-29.73,-30.11,0,*61
1506308853.02,1283,14.0,73964.3,-2.53,-29.67,-30.11,0,*65
1506308854.25,1284,14.0,73966.3,-2.53,-29.57,-29.89,0,*68
1506308855.49,1285,14.0,73962.0,-2.53,-29.57,-29.89,0,*69
1506308856.71,1286,14.0,73960.0,-2.53,-29.73,-30.11,0,*65
1506308857.93,1287,14.0,73960.0,-2.53,-29.73,-30.11,0,*64
1506308859.14,1288,14.0,73966.5,-2.53,-29.67,-29.95,0,*6A
1506308860.34,1289,14.0,73964.5,-2.53,-29.67,-29.95,0,*6B
1506308861.6,1290,14.0,73964.5,-2.53,-29.39,-29.89,0,*65
1506308862.81,1291,14.0,73960.8,-2.53,-29.57,-29.67,0,*6C
1506308864.04,1292,14.0,73962.8,-2.53,-28.75,-28.69,0,*61
1506308865.26,1293,14.0,73964.3,-2.53,-26.49,-26.71,0,*66
1506308866.5,1294,14.0,73966.5,-2.53,-26.33,-25.87,0,*66
1506308867.74,1295,14.0,73964.5,-2.53,-27.99,-27.45,0,*6A
1506308868.95,1296,14.0,73962.8,-2.53,-28.37,-28.31,0,*6E
1506308870.21,1297,14.0,73962.0,-2.55,-28.05,-28.15,0,*6E
1506308871.46,1298,14.0,73964.0,-2.53,-28.91,-29.17,0,*69
1506308872.71,1299,14.0,73962.3,-2.53,-29.39,-29.39,0,*67
1506308873.94,1300,14.0,73964.5,-2.53,-29.01,-28.37,0,*62
1506308875.2,1301,14.0,73972.3,-2.55,-27.99,-27.67,0,*60
1506308876.42,1302,14.0,73970.0,-2.53,-28.15,-27.35,0,*69
1506308877.65,1303,14.0,73966.0,-2.53,-28.91,-28.53,0,*6B
1506308878.93,1304,14.0,73966.3,-2.51,-29.13,-29.35,0,*64
1506308880.14,1305,14.0,73964.0,-2.53,-27.67,-27.89,0,*63
1506308881.37,1306,14.0,73966.0,-2.53,-29.07,-28.21,0,*65
1506308882.6,1307,14.0,73966.0,-2.53,-29.57,-29.35,0,*65
1506308883.86,1308,14.0,73966.0,-2.53,-29.39,-28.91,0,*6D
1506308885.07,1309,14.0,73970.0,-2.53,-28.85,-28.53,0,*64
1506308886.3,1310,14.0,73974.3,-2.53,-29.39,-29.67,0,*6C
1506308887.53,1311,14.0,73968.0,-2.53,-29.51,-29.79,0,*6C
1506308888.76,1312,14.0,73972.0,-2.53,-29.23,-29.35,0,*62
1506308889.99,1313,14.0,73968.0,-2.53,-29.23,-29.01,0,*64
1506308891.24,1314,13.94,73964.8,-2.51,-29.17,-28.85,0,*6B
1506308892.51,1315,14.0,73970.8,-2.51,-29.01,-29.29,0,*6A
1506308893.79,1316,14.0,73964.3,-2.51,-29.29,-29.51,0,*6C
1506308895.06,1317,14.0,73966.3,-2.51,-29.17,-29.35,0,*62
1506308896.29,1318,14.0,73974.3,-2.49,-29.35,-29.61,0,*65
1506308897.54,1319,14.0,73972.3,-2.49,-29.35,-29.73,0,*67
1506308898.8,1320,14.0,73966.3,-2.49,-29.35,-29.73,0,*6D
1506308900.02,1321,14.0,73966.3,-2.45,-29.29,-29.79,0,*67
1506308901.3,1322,14.0,73964.8,-2.51,-29.51,-29.89,0,*61
1506308902.56,1323,13.94,73968.0,-2.49,-29.51,-29.89,0,*69
1506308903.83,1324,14.0,73974.3,-2.49,-29.51,-29.89,0,*6E
1506308905.08,1325,14.0,73968.3,-2.49,-29.51,-30.01,0,*67
1506308906.34,1326,14.0,73970.8,-2.49,-29.51,-30.05,0,*60
1506308907.56,1327,14.0,73968.3,-2.49,-29.67,-30.05,0,*64